Time,TemperatureF,DewpointF,PressureIn,WindDirection,WindDirectionDegrees,WindSpeedMPH,WindSpeedGustMPH,Humidity,HourlyPrecipIn,Conditions,Clouds,dailyrainin,SoftwareType,DateUTC
2013-06-13 00:01:00,79.0,72.0,-100.00,West,267,4.0,6.0,79,0.00,,,0.00,,2013-06-13 04:01:00,
2013-06-13 00:12:00,79.0,72.0,-100.00,West,270,4.0,6.0,79,0.00,,,0.00,,2013-06-13 04:12:00,
2013-06-13 00:23:00,79.0,72.0,-100.00,West,270,4.0,6.0,79,0.00,,,0.00,,2013-06-13 04:23:00,
2013-06-13 00:33:00,79.0,72.0,-100.00,West,270,4.0,6.0,79,0.00,,,0.00,,2013-06-13 04:33:00,
2013-06-13 00:43:00,78.0,72.0,-100.00,West,265,5.0,7.0,81,0.00,,,0.00,,2013-06-13 04:43:00,
2013-06-13 00:54:00,78.0,72.0,-100.00,West,265,5.0,7.0,81,0.00,,,0.00,,2013-06-13 04:54:00,
2013-06-13 01:02:00,78.0,72.0,-100.00,WSW,251,4.0,6.0,82,0.00,,,0.00,,2013-06-13 05:02:00,
2013-06-13 01:12:00,78.0,72.0,-100.00,WSW,251,4.0,6.0,82,0.00,,,0.00,,2013-06-13 05:12:00,
2013-06-13 01:24:00,78.0,72.0,-100.00,West,261,3.0,5.0,83,0.00,,,0.00,,2013-06-13 05:24:00,
2013-06-13 01:33:00,78.0,72.0,-100.00,West,261,3.0,5.0,83,0.00,,,0.00,,2013-06-13 05:33:00,
2013-06-13 01:43:00,77.0,72.0,-100.00,WSW,243,1.0,2.0,85,0.00,,,0.00,,2013-06-13 05:43:00,
2013-06-13 01:53:00,77.0,72.0,-100.00,WSW,243,1.0,2.0,85,0.00,,,0.00,,2013-06-13 05:53:00,
2013-06-13 02:02:00,76.0,72.0,-100.00,WNW,301,2.0,3.0,87,0.00,,,0.00,,2013-06-13 06:02:00,
2013-06-13 02:11:00,76.0,72.0,-100.00,WNW,301,2.0,3.0,87,0.00,,,0.00,,2013-06-13 06:11:00,
2013-06-13 02:22:00,76.0,72.0,-100.00,WNW,301,2.0,3.0,87,0.00,,,0.00,,2013-06-13 06:22:00,
2013-06-13 02:33:00,76.0,72.0,-100.00,NW,316,1.0,2.0,87,0.00,,,0.00,,2013-06-13 06:33:00,
2013-06-13 02:44:00,76.0,72.0,-100.00,WNW,295,0.0,0.0,88,0.00,,,0.00,,2013-06-13 06:44:00,
2013-06-13 02:52:00,76.0,72.0,-100.00,WNW,295,0.0,0.0,88,0.00,,,0.00,,2013-06-13 06:52:00,
2013-06-13 03:02:00,75.0,72.0,-100.00,WSW,256,1.0,2.0,90,0.00,,,0.00,,2013-06-13 07:02:00,
2013-06-13 03:12:00,75.0,72.0,-100.00,WSW,256,1.0,2.0,90,0.00,,,0.00,,2013-06-13 07:12:00,
2013-06-13 03:22:00,75.0,72.0,-100.00,WSW,256,1.0,2.0,90,0.00,,,0.00,,2013-06-13 07:22:00,
2013-06-13 03:33:00,75.0,72.0,-100.00,WSW,256,1.0,2.0,90,0.00,,,0.00,,2013-06-13 07:33:00,
2013-06-13 03:42:00,76.0,72.0,-100.00,West,267,3.0,4.0,88,0.00,,,0.00,,2013-06-13 07:42:00,
2013-06-13 03:52:00,76.0,72.0,-100.00,West,267,3.0,4.0,88,0.00,,,0.00,,2013-06-13 07:52:00,
2013-06-13 04:02:00,76.0,72.0,-100.00,West,267,3.0,4.0,88,0.00,,,0.00,,2013-06-13 08:02:00,
2013-06-13 04:11:00,76.0,72.0,-100.00,WSW,250,2.0,3.0,88,0.00,,,-99.99,,2013-06-13 08:11:00,
2013-06-13 04:22:00,76.0,72.0,-100.00,NW,316,0.0,1.0,87,0.00,,,-99.99,,2013-06-13 08:22:00,
2013-06-13 04:32:00,76.0,72.0,-100.00,NW,316,0.0,1.0,87,0.00,,,-99.99,,2013-06-13 08:32:00,
2013-06-13 04:43:00,76.0,72.0,-100.00,WNW,298,1.0,2.0,89,0.00,,,-99.99,,2013-06-13 08:43:00,
2013-06-13 04:52:00,76.0,72.0,-100.00,WNW,298,1.0,2.0,89,0.00,,,-99.99,,2013-06-13 08:52:00,
2013-06-13 05:02:00,75.0,72.0,-100.00,WSW,244,1.0,2.0,90,0.00,,,-99.99,,2013-06-13 09:02:00,
2013-06-13 05:12:00,75.0,72.0,-100.00,WSW,244,1.0,2.0,90,0.00,,,-99.99,,2013-06-13 09:12:00,
2013-06-13 05:22:00,75.0,72.0,-100.00,WSW,244,1.0,2.0,90,0.00,,,-99.99,,2013-06-13 09:22:00,
2013-06-13 05:32:00,75.0,72.0,-100.00,SW,232,0.0,1.0,91,0.00,,,-99.99,,2013-06-13 09:32:00,
2013-06-13 05:42:00,75.0,72.0,-100.00,SW,232,0.0,1.0,91,0.00,,,-99.99,,2013-06-13 09:42:00,
2013-06-13 05:52:00,74.0,72.0,-100.00,SSW,208,1.0,1.0,92,0.00,,,-99.99,,2013-06-13 09:52:00,
2013-06-13 06:01:00,74.0,72.0,-100.00,WSW,257,1.0,2.0,93,0.00,,,-99.99,,2013-06-13 10:01:00,
2013-06-13 06:12:00,74.0,72.0,-100.00,WSW,257,1.0,2.0,93,0.00,,,-99.99,,2013-06-13 10:12:00,
2013-06-13 06:22:00,74.0,72.0,-100.00,NNE,31,0.0,0.0,94,0.00,,,-99.99,,2013-06-13 10:22:00,
2013-06-13 06:33:00,74.0,72.0,-100.00,NNE,31,0.0,0.0,94,0.00,,,-99.99,,2013-06-13 10:33:00,
2013-06-13 06:43:00,73.0,72.0,-100.00,West,268,0.0,0.0,94,0.00,,,-99.99,,2013-06-13 10:43:00,
2013-06-13 06:53:00,73.0,72.0,-100.00,West,268,0.0,0.0,94,0.00,,,-99.99,,2013-06-13 10:53:00,
2013-06-13 07:02:00,73.0,72.0,-100.00,West,268,0.0,0.0,94,0.00,,,-99.99,,2013-06-13 11:02:00,
2013-06-13 07:12:00,74.0,72.0,-100.00,WSW,256,1.0,2.0,94,0.00,,,-99.99,,2013-06-13 11:12:00,
2013-06-13 07:24:00,74.0,72.0,-100.00,WSW,254,3.0,4.0,94,0.00,,,-99.99,,2013-06-13 11:24:00,
2013-06-13 07:32:00,74.0,72.0,-100.00,WSW,254,3.0,4.0,94,0.00,,,-99.99,,2013-06-13 11:32:00,
2013-06-13 07:42:00,75.0,72.0,-100.00,WSW,248,4.0,7.0,91,0.00,,,-99.99,,2013-06-13 11:42:00,
2013-06-13 07:52:00,75.0,72.0,-100.00,WSW,248,4.0,7.0,91,0.00,,,-99.99,,2013-06-13 11:52:00,
2013-06-13 08:02:00,76.0,72.0,-100.00,West,275,3.0,4.0,86,0.00,,,-99.99,,2013-06-13 12:02:00,
2013-06-13 08:12:00,76.0,72.0,-100.00,West,275,3.0,4.0,86,0.00,,,-99.99,,2013-06-13 12:12:00,
2013-06-13 08:22:00,78.0,72.0,-100.00,West,260,2.0,4.0,84,0.00,,,-99.99,,2013-06-13 12:22:00,
2013-06-13 08:35:00,78.0,72.0,-100.00,West,260,2.0,4.0,84,0.00,,,-99.99,,2013-06-13 12:35:00,
2013-06-13 08:43:00,79.0,72.0,-100.00,West,267,4.0,7.0,80,0.00,,,-99.99,,2013-06-13 12:43:00,
2013-06-13 08:52:00,79.0,72.0,-100.00,West,267,4.0,7.0,80,0.00,,,-99.99,,2013-06-13 12:52:00,
2013-06-13 09:02:00,80.0,72.0,-100.00,WSW,258,3.0,4.0,76,0.00,,,-99.99,,2013-06-13 13:02:00,
2013-06-13 09:11:00,80.0,72.0,-100.00,WSW,258,3.0,4.0,76,0.00,,,-99.99,,2013-06-13 13:11:00,
2013-06-13 09:22:00,80.0,72.0,-100.00,WSW,258,3.0,4.0,76,0.00,,,-99.99,,2013-06-13 13:22:00,
2013-06-13 09:33:00,80.0,72.0,-100.00,WSW,258,3.0,4.0,76,0.00,,,-99.99,,2013-06-13 13:33:00,
2013-06-13 09:43:00,84.0,72.0,-100.00,West,265,6.0,8.0,67,0.00,,,-99.99,,2013-06-13 13:43:00,
2013-06-13 09:53:00,84.0,72.0,-100.00,West,265,6.0,8.0,67,0.00,,,-99.99,,2013-06-13 13:53:00,
2013-06-13 10:02:00,86.0,70.0,-100.00,WNW,299,3.0,5.0,60,0.00,,,-99.99,,2013-06-13 14:02:00,
2013-06-13 10:11:00,86.0,70.0,-100.00,WNW,299,3.0,5.0,60,0.00,,,-99.99,,2013-06-13 14:11:00,
2013-06-13 10:22:00,86.0,70.0,-100.00,WNW,299,3.0,5.0,60,0.00,,,-99.99,,2013-06-13 14:22:00,
2013-06-13 10:33:00,88.0,70.0,-100.00,West,271,4.0,7.0,56,0.00,,,-99.99,,2013-06-13 14:33:00,
2013-06-13 10:40:00,88.0,69.0,-100.00,West,278,5.0,9.0,54,0.00,,,-99.99,,2013-06-13 14:40:00,
2013-06-13 10:43:00,88.0,70.0,-100.00,West,271,6.0,10.0,55,0.00,,,-99.99,,2013-06-13 14:43:00,
2013-06-13 10:53:00,88.0,70.0,-100.00,West,271,6.0,10.0,55,0.00,,,-99.99,,2013-06-13 14:53:00,
2013-06-13 11:02:00,88.0,69.0,-100.00,West,278,5.0,9.0,54,0.00,,,-99.99,,2013-06-13 15:02:00,
2013-06-13 11:12:00,88.0,69.0,-100.00,West,278,5.0,9.0,54,0.00,,,-99.99,,2013-06-13 15:12:00,
2013-06-13 11:22:00,88.0,69.0,-100.00,West,278,5.0,9.0,54,0.00,,,-99.99,,2013-06-13 15:22:00,
2013-06-13 11:33:00,88.0,69.0,-100.00,West,278,5.0,9.0,54,0.00,,,-99.99,,2013-06-13 15:33:00,
2013-06-13 11:53:00,89.0,67.0,-100.00,West,277,10.0,14.0,49,0.00,,,-99.99,,2013-06-13 15:53:00,
2013-06-13 12:02:00,89.0,67.0,-100.00,West,277,10.0,14.0,49,0.00,,,-99.99,,2013-06-13 16:02:00,
2013-06-13 12:12:00,89.0,68.0,-100.00,West,261,8.0,14.0,50,0.00,,,-99.99,,2013-06-13 16:12:00,
2013-06-13 12:22:00,90.0,67.0,-100.00,West,271,9.0,14.0,48,0.00,,,-99.99,,2013-06-13 16:22:00,
2013-06-13 12:33:00,90.0,67.0,-100.00,West,271,9.0,14.0,48,0.00,,,-99.99,,2013-06-13 16:33:00,
2013-06-13 12:43:00,90.0,70.0,-100.00,West,260,7.0,12.0,51,0.00,,,-99.99,,2013-06-13 16:43:00,
2013-06-13 12:54:00,90.0,70.0,-100.00,West,260,7.0,12.0,51,0.00,,,-99.99,,2013-06-13 16:54:00,
2013-06-13 13:02:00,90.0,70.0,-100.00,West,260,7.0,12.0,51,0.00,,,-99.99,,2013-06-13 17:02:00,
2013-06-13 13:12:00,90.0,67.0,-100.00,WSW,256,9.0,17.0,47,0.00,,,-99.99,,2013-06-13 17:12:00,
2013-06-13 13:24:00,91.0,67.0,-100.00,West,268,9.0,13.0,45,0.00,,,-99.99,,2013-06-13 17:24:00,
2013-06-13 13:33:00,91.0,67.0,-100.00,West,268,9.0,13.0,45,0.00,,,-99.99,,2013-06-13 17:33:00,
2013-06-13 13:43:00,91.0,65.0,-100.00,West,261,11.0,19.0,42,0.00,,,-99.99,,2013-06-13 17:43:00,
2013-06-13 13:53:00,91.0,65.0,-100.00,West,261,11.0,19.0,42,0.00,,,-99.99,,2013-06-13 17:53:00,
2013-06-13 14:02:00,92.0,67.0,-100.00,West,261,7.0,14.0,43,0.00,,,-99.99,,2013-06-13 18:02:00,
2013-06-13 14:11:00,92.0,67.0,-100.00,West,261,7.0,14.0,43,0.00,,,-99.99,,2013-06-13 18:11:00,
2013-06-13 14:22:00,92.0,67.0,-100.00,West,261,7.0,14.0,43,0.00,,,-99.99,,2013-06-13 18:22:00,
2013-06-13 14:33:00,92.0,67.0,-100.00,West,261,7.0,14.0,43,0.00,,,-99.99,,2013-06-13 18:33:00,
2013-06-13 14:43:00,92.0,68.0,-100.00,West,271,7.0,10.0,44,0.00,,,-99.99,,2013-06-13 18:43:00,
2013-06-13 14:52:00,92.0,66.0,-100.00,West,267,13.0,17.0,42,0.00,,,-99.99,,2013-06-13 18:52:00,
2013-06-13 15:02:00,92.0,66.0,-100.00,West,267,13.0,17.0,42,0.00,,,-99.99,,2013-06-13 19:02:00,
2013-06-13 15:11:00,93.0,66.0,-100.00,West,274,9.0,15.0,41,0.00,,,-99.99,,2013-06-13 19:11:00,
2013-06-13 15:20:00,93.0,65.0,-100.00,West,268,11.0,17.0,40,0.00,,,-99.99,,2013-06-13 19:20:00,
2013-06-13 15:22:00,94.0,69.0,-100.00,West,267,9.0,14.0,45,0.00,,,-99.99,,2013-06-13 19:22:00,
2013-06-13 15:33:00,94.0,69.0,-100.00,West,267,9.0,14.0,45,0.00,,,-99.99,,2013-06-13 19:33:00,
2013-06-13 15:43:00,94.0,69.0,-100.00,West,267,9.0,14.0,45,0.00,,,-99.99,,2013-06-13 19:43:00,
2013-06-13 15:53:00,93.0,65.0,-100.00,West,268,11.0,17.0,40,0.00,,,-99.99,,2013-06-13 19:53:00,
2013-06-13 16:02:00,93.0,65.0,-100.00,West,268,11.0,17.0,40,0.00,,,-99.99,,2013-06-13 20:02:00,
2013-06-13 16:11:00,93.0,65.0,-100.00,West,268,11.0,17.0,40,0.00,,,-99.99,,2013-06-13 20:11:00,
2013-06-13 16:33:00,93.0,67.0,-100.00,West,261,11.0,18.0,42,0.00,,,-99.99,,2013-06-13 20:33:00,
2013-06-13 16:44:00,93.0,67.0,-100.00,West,261,11.0,18.0,42,0.00,,,-99.99,,2013-06-13 20:44:00,
2013-06-13 16:53:00,93.0,68.0,-100.00,WNW,284,9.0,14.0,43,0.00,,,-99.99,,2013-06-13 20:53:00,
2013-06-13 17:02:00,83.0,58.0,-100.00,North,1,17.0,24.0,43,0.00,,,-99.99,,2013-06-13 21:02:00,
2013-06-13 17:22:00,71.0,65.0,-100.00,NW,323,15.0,23.0,81,0.47,,,-99.99,,2013-06-13 21:22:00,
2013-06-13 17:43:00,67.0,65.0,-100.00,WNW,295,6.0,11.0,93,0.34,,,-99.99,,2013-06-13 21:43:00,
2013-06-13 18:02:00,68.0,66.0,-100.00,WNW,295,5.0,8.0,94,0.17,,,-99.99,,2013-06-13 22:02:00,
2013-06-13 18:22:00,68.0,67.0,-100.00,West,270,4.0,6.0,94,0.00,,,-99.99,,2013-06-13 22:22:00,
2013-06-13 18:33:00,68.0,67.0,-100.00,West,270,4.0,6.0,94,0.00,,,-99.99,,2013-06-13 22:33:00,
2013-06-13 18:43:00,68.0,67.0,-100.00,West,270,4.0,6.0,94,0.00,,,-99.99,,2013-06-13 22:43:00,
2013-06-13 18:52:00,69.0,66.0,-100.00,West,260,7.0,10.0,92,0.01,,,-99.99,,2013-06-13 22:52:00,
2013-06-13 19:02:00,68.0,65.0,-100.00,WSW,244,4.0,7.0,91,0.00,,,-99.99,,2013-06-13 23:02:00,
2013-06-13 19:11:00,68.0,65.0,-100.00,WSW,244,4.0,7.0,91,0.00,,,-99.99,,2013-06-13 23:11:00,
2013-06-13 19:22:00,68.0,65.0,-100.00,WSW,244,4.0,7.0,91,0.00,,,-99.99,,2013-06-13 23:22:00,
2013-06-13 19:32:00,69.0,66.0,-100.00,North,349,2.0,3.0,92,0.00,,,-99.99,,2013-06-13 23:32:00,
2013-06-13 19:43:00,69.0,66.0,-100.00,North,360,1.0,2.0,92,0.00,,,-99.99,,2013-06-13 23:43:00,
2013-06-13 19:52:00,69.0,66.0,-100.00,North,360,1.0,2.0,92,0.00,,,-99.99,,2013-06-13 23:52:00,
2013-06-13 20:01:00,69.0,66.0,-100.00,North,360,1.0,2.0,92,0.00,,,-99.99,,2013-06-14 00:01:00,
2013-06-13 20:12:00,69.0,66.0,-100.00,WNW,284,2.0,5.0,91,0.00,,,-99.99,,2013-06-14 00:12:00,
2013-06-13 20:22:00,69.0,66.0,-100.00,WNW,301,3.0,4.0,90,0.00,,,-99.99,,2013-06-14 00:22:00,
2013-06-13 20:34:00,69.0,66.0,-100.00,WNW,301,3.0,4.0,90,0.00,,,-99.99,,2013-06-14 00:34:00,
2013-06-13 20:43:00,69.0,66.0,-100.00,WNW,285,3.0,5.0,91,0.00,,,-99.99,,2013-06-14 00:43:00,
2013-06-13 20:53:00,69.0,66.0,-100.00,WNW,285,3.0,5.0,91,0.00,,,-99.99,,2013-06-14 00:53:00,
2013-06-13 21:01:00,69.0,66.0,-100.00,West,263,3.0,5.0,91,0.00,,,-99.99,,2013-06-14 01:01:00,
2013-06-13 21:11:00,69.0,66.0,-100.00,West,263,3.0,5.0,91,0.00,,,-99.99,,2013-06-14 01:11:00,
2013-06-13 21:22:00,69.0,66.0,-100.00,West,270,5.0,7.0,90,0.00,,,-99.99,,2013-06-14 01:22:00,
2013-06-13 21:33:00,69.0,66.0,-100.00,West,270,5.0,7.0,90,0.00,,,-99.99,,2013-06-14 01:33:00,
2013-06-13 21:43:00,69.0,66.0,-100.00,WNW,289,2.0,4.0,90,0.00,,,-99.99,,2013-06-14 01:43:00,
2013-06-13 21:53:00,69.0,66.0,-100.00,WNW,289,2.0,4.0,90,0.00,,,-99.99,,2013-06-14 01:53:00,
2013-06-13 22:02:00,69.0,66.0,-100.00,WNW,289,2.0,4.0,90,0.00,,,-99.99,,2013-06-14 02:02:00,
2013-06-13 22:11:00,69.0,66.0,-100.00,WNW,287,3.0,5.0,90,0.00,,,-99.99,,2013-06-14 02:11:00,
2013-06-13 22:22:00,69.0,66.0,-100.00,NW,312,4.0,6.0,89,0.00,,,-99.99,,2013-06-14 02:22:00,
2013-06-13 22:33:00,69.0,66.0,-100.00,NW,312,4.0,6.0,89,0.00,,,-99.99,,2013-06-14 02:33:00,
2013-06-13 22:43:00,69.0,66.0,-100.00,NW,311,3.0,5.0,88,0.00,,,-99.99,,2013-06-14 02:43:00,
2013-06-13 22:53:00,69.0,66.0,-100.00,NW,311,3.0,5.0,88,0.00,,,-99.99,,2013-06-14 02:53:00,
2013-06-13 23:02:00,69.0,66.0,-100.00,West,271,5.0,7.0,88,0.00,,,-99.99,,2013-06-14 03:02:00,
2013-06-13 23:12:00,69.0,66.0,-100.00,West,271,5.0,7.0,88,0.00,,,-99.99,,2013-06-14 03:12:00,
2013-06-13 23:22:00,69.0,66.0,-100.00,WNW,298,2.0,5.0,90,0.00,,,-99.99,,2013-06-14 03:22:00,
2013-06-13 23:34:00,69.0,66.0,-100.00,WNW,298,2.0,5.0,90,0.00,,,-99.99,,2013-06-14 03:34:00,
2013-06-13 23:43:00,69.0,66.0,-100.00,WNW,295,4.0,5.0,89,0.00,,,-99.99,,2013-06-14 03:43:00,
2013-06-13 23:53:00,69.0,66.0,-100.00,WNW,295,4.0,5.0,89,0.00,,,-99.99,,2013-06-14 03:53:00,